www.pogodaiklimat.ru

Погода и климат >> Архив погоды >> Индонезия >> Намлеа


ПОГОДА в Намлеа

  • Прогноз погоды в Намлеа
  • Монитор погоды в Намлеа

АРХИВ ПОГОДЫ в Намлеа

Время (UTC), дата Ветер
(напр.,м/с)
 
Видим.   Явления Облачность Т
(С)
Тd
(С)
f
(%)
Тe
(С)
Тes
(С)
Комфортность P
(гПа)
Po
(гПа)
Тmin
(С)
Tmax
(С)
R
(мм)
R24
(мм)
S
(см)
06 19.06 ЮВ 6 10 км 8/5 500 м
[Cu med, cong Ac trans Ci fib]
+28.1 +22.5 72 +37 +39 очень
душно
1007.9 1006.4
09 19.06 ЮВ 6 10 км 3/3 500 м
[Cu med, cong Ac trans]
+27.6 +21.6 70 +35 +35 очень
душно
1007.8 1006.2
12 19.06 ЮВ 3 10 км 5/3 500 м
[Cu med, cong Ac trans Ci fib]
+26.0 +22.2 80 +34 +34 очень
душно
1009.7 1008.2 +29.0
15 19.06 Ю 2 10 км 3/3 450 м
[Cu med, cong]
+23.8 +21.8 89 +31 +31 очень
душно
1009.8 1008.3
18 19.06 Ю 2 10 км 4/3 480 м
[Cu med, cong Ci fib]
+23.4 +21.8 91 +32 +32 очень
душно
1008.6 1007.0
21 19.06 ЮЗ 2 10 км 3/3 450 м
[Cu med, cong]
+23.0 +21.7 92 +31 +31 очень
душно
1008.8 1007.2
00 20.06 ЮЗ 2 9000 м 5/3 500 м
[Cu med, cong Ac trans Ci sp]
+26.7 +22.7 79 +35 +39 очень
душно
1010.6 1009.0 +22.8
03 20.06 ЮВ 5 10 км 4/3 500 м
[Cu med, cong Ac trans Ci fib]
+30.3 +23.6 67 +41 +47 опасность
перегрева
1009.9 1008.4
06 20.06 ЮВ 5 10 км 5/3 540 м
[Cu med, cong Ac trans Ci sp]
+29.4 +23.1 69 +39 +43 очень
душно
1008.0 1006.5
09 20.06 Ю 3 10 км 4/3 540 м
[Cu med, cong Ac trans Ci fib]
+27.6 +22.9 76 +37 +37 очень
душно
1008.4 1006.8
12 20.06 штиль 0 10 км 3/3 480 м
[Cu med, cong]
+25.4 +22.4 83 +33 +33 очень
душно
1010.7 1009.2 +31.1
15 20.06 штиль 0 10 км 3/3 480 м
[Cu med, cong]
+24.4 +22.2 88 +32 +32 очень
душно
1010.7 1009.1
18 20.06 Ю 3 10 км 6/3 500 м
[Cu med, cong Ac trans Ci sp]
+24.8 +22.9 89 +33 +33 очень
душно
1009.7 1008.2
21 20.06 Ю 3 10 км 4/3 500 м
[Cu med, cong Ac trans Ci fib]
+23.4 +22.4 94 +32 +32 очень
душно
1009.4 1007.9
00 21.06 Ю 2 10 км 4/3 500 м
[Cu med, cong Ac trans Ci fib]
+26.1 +22.8 82 +35 +39 очень
душно
1010.1 1008.5 +23.8
03 21.06 ЮВ 7 10 км 5/4 540 м
[Cu med, cong Ac trans Ci fib]
+29.4 +23.4 70 +40 +42 очень
душно
1008.8 1007.3
06 21.06 ЮВ 7 10 км 5/4 540 м
[Cu med, cong Ac trans Ci sp]
+29.1 +23.1 70 +39 +41 очень
душно
1006.9 1005.4
09 21.06 ЮВ 5 10 км 5/3 540 м
[Cu med, cong Ac trans Ci sp]
+27.0 +23.1 79 +36 +36 очень
душно
1007.8 1006.2
12 21.06 Ю 4 10 км 5/4 500 м
[Cu med, cong Ac trans Ci fib]
+25.7 +22.5 83 +34 +34 очень
душно
1010.0 1008.5 +30.8
15 21.06 ЮВ 3 10 км 6/3 540 м
[Cu med, cong Ac trans Ci sp]
+24.4 +22.2 88 +32 +32 очень
душно
1010.2 1008.6
18 21.06 Ю 2 10 км 4/3 500 м
[Cu med, cong Ac trans Ci fib]
+23.1 +22.0 94 +31 +31 очень
душно
1008.9 1007.4
21 21.06 Ю 3 10 км 5/3 540 м
[Cu med, cong Ac trans Ci fib]
+24.0 +22.1 89 +31 +31 очень
душно
1008.9 1007.4
00 22.06 ЮВ 4 10 км 4/3 500 м
[Cu med, cong Ac trans Ci fib]
+27.6 +23.0 76 +37 +40 очень
душно
1009.9 1008.3 +22.9
03 22.06 ЮВ 9 12 км 4/3 500 м
[Cu med, cong Ac trans Ci fib]
+29.3 +22.7 68 +39 +40 очень
душно
1008.6 1007.0
06 22.06 ЮВ 9 12 км 4/3 500 м
[Cu med, cong Ac trans Ci fib]
+29.2 +25.0 78 +42 +43 опасность
перегрева
1006.5 1005.0
09 22.06 ЮВ 7 10 км 4/3 500 м
[Cu med, cong Ac trans Ci fib]
+27.2 +23.7 81 +37 +37 очень
душно
1007.2 1005.7
12 22.06 ЮВ 3 10 км 4/3 500 м
[Cu med, cong Ac trans Ci fib]
+25.6 +22.6 84 +34 +34 очень
душно
1009.7 1008.1 +31.0
15 22.06 Ю 2 10 км 3/3 500 м
[Cu med, cong]
+23.6 +22.0 91 +30 +30 очень
душно
1009.8 1008.2
18 22.06 ЮЗ 2 10 км 3/3 450 м
[Cu med, cong]
+22.6 +21.6 94 +30 +30 очень
душно
1008.9 1007.4
21 22.06 ЮЗ 2 10 км 4/3 480 м
[Cu med, cong Ac trans Ci fib]
+22.0 +21.3 96 +29 +29 очень
душно
1009.0 1007.5
00 23.06 ЮЗ 3 10 км 5/3 500 м
[Cu med, cong Ac trans Ci sp]
+25.6 +22.6 84 +34 +37 очень
душно
1010.1 1008.6 +21.6
03 23.06 Ю 4 10 км 8/3 540 м
[Cu med, cong Ac trans Ci sp]
+28.6 +24.5 79 +41 +46 опасность
перегрева
1009.6 1008.1
06 23.06 ЮВ 6 4000 м слаб. дождь 10/5 500 м
[Cu Sc Ac As Ci fib]
+26.0 +24.5 91 +36 +38 очень
душно
1008.1 1006.6 2
09 23.06 Ю 3 8000 м {дождь} 9/4 540 м
[Cu Sc Ac As Ci sp]
+26.8 +24.1 85 +37 +37 очень
душно
1008.5 1006.9 0.0
12 23.06 Ю 4 8000 м в посл. час дождь 9/4 540 м
[Cu Sc Ac As Ci sp]
+25.4 +24.2 93 +35 +35 очень
душно
1010.3 1008.7 +28.9 1
15 23.06 ЮВ 3 9000 м 5/3 500 м
[Cu med, cong Ac trans Ci sp]
+25.0 +23.5 91 +34 +34 очень
душно
1010.5 1009.0
18 23.06 Ю 3 8000 м 9/4 540 м
[Cu Sc Ac As Ci sp]
+24.8 +23.5 92 +33 +33 очень
душно
1010.0 1008.5
21 23.06 Ю 2 7000 м осадки на расстоянии 9/4 540 м
[Cu Sc Ac As Ci sp]
+24.4 +22.8 91 +32 +32 очень
душно
1010.2 1008.6
00 24.06 Ю 3 4000 м слаб. дождь 10/6 500 м
[Cu Sc As op Ci sp]
+25.8 +24.1 90 +36 +37 очень
душно
1012.0 1010.4 +24.0 3
03 24.06 ЮВ 3 8000 м {дождь} 9/5 500 м
[Cu Sc Ac As Ci sp]
+25.8 +24.7 94 +37 +41 очень
душно
1011.4 1009.9 5
06 24.06 ЮВ 7 8000 м осадки на расстоянии 10/4 540 м
[Cu Sc Ac As Ci sp]
+26.0 +24.2 90 +36 +37 очень
душно
1009.8 1008.3 5
09 24.06 Ю 5 10 км 5/3 500 м
[Cu med, cong Ac trans Ci sp]
+26.2 +23.2 84 +35 +35 очень
душно
1010.1 1008.6
12 24.06 Ю 3 9000 м 8/5 500 м
[Cu med, cong Ac trans Ci fib]
+24.8 +23.1 90 +33 +33 очень
душно
1011.9 1010.3 +29.2
15 24.06 Ю 2 9000 м 4/3 500 м
[Cu med, cong Ac trans Ci fib]
+24.2 +22.8 92 +32 +32 очень
душно
1011.7 1010.2
18 24.06 Ю 3 9000 м 5/3 500 м
[Cu med, cong Ac trans Ci fib]
+24.4 +23.1 92 +32 +32 очень
душно
1010.8 1009.2
21 24.06 Ю 3 9000 м 5/4 500 м
[Cu Sc Ac trans Ci fib]
+24.6 +23.5 94 +33 +33 очень
душно
1011.2 1009.7
00 25.06 ЮВ 4 10 км 3/3 500 м
[Cu med, cong Ci fib]
+27.4 +24.3 83 +38 +42 очень
душно
1012.3 1010.7 +24.2 5
03 25.06 ЮВ 7 10 км 3/3 500 м
[Cu med, cong Ci fib]
+29.1 +24.8 78 +42 +45 опасность
перегрева
1011.7 1010.2
06 25.06 ЮВ 7 10 км 3/3 500 м
[Cu med, cong Ci fib]
+29.0 +24.8 78 +41 +43 опасность
перегрева
1009.6 1008.1
09 25.06 ЮВ 6 10 км 4/3 500 м
[Cu med, cong Ac trans Ci fib]
+27.4 +23.4 79 +37 +37 очень
душно
1009.8 1008.2
12 25.06 ЮВ 4 10 км 6/3 500 м
[Cu med, cong Ac trans Ci fib]
+26.2 +22.9 82 +35 +35 очень
душно
1011.8 1010.2 +29.6
15 25.06 ЮВ 2 10 км 6/3 500 м
[Cu med, cong Ac trans Ci sp]
+25.6 +23.2 87 +34 +34 очень
душно
1011.7 1010.2
18 25.06 Ю 2 10 км 5/3 500 м
[Cu med, cong Ac trans Ci fib]
+24.0 +22.7 92 +31 +31 очень
душно
1010.7 1009.1
21 25.06 Ю 2 10 км 4/3 500 м
[Cu med, cong Ac trans Ci fib]
+23.6 +22.3 92 +31 +31 очень
душно
1010.6 1009.1
00 26.06 ЮВ 3 10 км 6/3 500 м
[Cu med, cong Ac trans Ci sp]
+27.2 +24.2 84 +38 +41 очень
душно
1011.6 1010.0 +23.4
03 26.06 ЮВ 7 10 км 5/3 540 м
[Cu med, cong Ac trans Ci sp]
+29.0 +24.4 76 +41 +43 опасность
перегрева
1011.0 1009.4

 

Местоположение метеостанции Намлеа (Индонезия): широта -3.25 долгота 127.08 высота над уровнем моря 20 м.

В архиве по умолчанию представлена погода в Намлеа за последнюю неделю. Архивные данные за месяц целиком и за предыдущие месяцы, начиная с января 2011 года, Вы можете получить, выбрав интересующий диапазон дат из раскрывающегося списка и нажав кнопку "Ввод!".


*Определитесь, кто Вы:
робот инопланетянин человек

Внимание! Время в таблицах - всемирное. Для получения местного времени необходимо прибавить поправку, которая равна 9 ч.

Смотрите также архив погоды в соседних городах и на ближайших метеорологических станциях:

Погода в Амбоне (Индонезия) (122 км)
Погода на Санане (Индонезия) (177 км)
Погода в Тауне (Индонезия) (182 км)
Погода в Амахаи (Индонезия) (200 км)
Погода в Лабухе (Индонезия) (295 км)
Погода в Неира (Индонезия) (344 км)
Погода в Гесере (Индонезия) (421 км)
Погода в Тернате (Индонезия) (448 км)
Погода в Аэропорту Соронг-Джефман (Индонезия) (517 км)
Погода в Кендари (Индонезия) (525 км)

Пояснения к столбцам:

Ветер - указаны скорость ветра в м/с - средняя за 10 мин, порывы в срок и между сроками (в фигурных скобках) и направление, откуда дует ветер: С - северный, СВ - северо-восточный, В - восточный, ЮВ - юго-восточный, Ю - южный, ЮЗ - юго-западный, З - западный, СЗ - северо-западный.
Видимость - горизонтальная дальность видимости в метрах или километрах. При видимости от 1 до 10 км при отсутствии осадков обычно наблюдается дымка, при ухудшении видимости до 1 км и менее - туман. В сухую погоду видимость может ухудшаться дымом, пылью или мглою.
Явления - указаны атмосферные явления, наблюдавшиеся в срок или в последний час перед сроком; фигурными скобками обозначены явления, наблюдавшиеся между сроками (за 1-3 часа до срока); квадратными скобками обозначены град или гололедные отложения с указанием их диаметра в мм.
Облачность - указаны через наклонную черту общая и нижняя облачность в баллах и высота нижней границы облаков в метрах; квадратными скобками обозначены формы облаков: Ci - перистые, Cs - перисто-слоистые, Cc - перисто-кучевые, Ac - высококучевые, As - высокослоистые, Sc - слоисто-кучевые, Ns - слоисто-дождевые, Cu - кучевые, Cb - кучево-дождевые. Подробнее классификацию облаков см. в Атласе облаков (PDF).
T - Температура воздуха - температура, измеренная на высоте 2 м над землей.
Td - Температура точки росы - температура, при понижении до которой содержащийся в воздухе водяной пар достигнет насыщения.
f - Относительная влажность воздуха - влажноcть воздуха, измеренная на высоте 2 м над землей.
Te - Эффективная температура - температура, которую ощущает одетый по сезону человек в тени. Характеристика душности погоды. При расчете учитывается влияние влажности воздуха и скорости ветра на теплоощущения человека.
Tes - Эффективная температура на солнце - температура, которую ощущает человек, с поправкой на солнечный нагрев. Характеристика знойности погоды. Зависит от высоты солнца над горизонтом, облачности и скорости ветра. Ночью, в пасмурную погоду, а также при ветре 12 м/с и более поправка равна нулю.
P - Атмосферное давление - приведенное к уровню моря атмосферное давление.
Po - Атмосферное давление - измеренное на уровне метеостанции атмосферное давление.
Tmin - Минимальная температура - минимум температуры воздуха на высоте 2 м над землей.
Tmax - Максимальная температура - максимум температуры воздуха на высоте 2 м над землей.
R - Количество осадков - Количество выпавших осадков за период времени, мм. При наведении курсора мыши на число - период времени, за который выпало указанное количество осадков.
R24 - Количество осадков - Количество выпавших осадков за 24 часа, мм.
S - Снежный покров - Высота снежного покрова, см. При наведении курсора мыши на число - состояние снежного покрова и степень покрытия местности в баллах.